Weather reports worldwide

Advertisment
Sennybridge, United Kingdom (3507): temperature & dewpoint: 13.08.2018 20:00:00 - 19.08.2018 20:00:00 (BST)Sennybridge, United Kingdom (3507): temperature -20cm & temperature -100cm: 13.08.2018 20:00:00 - 19.08.2018 20:00:00 (BST)Sennybridge, United Kingdom (3507): wind speed & gusts: 13.08.2018 20:00:00 - 19.08.2018 20:00:00 (BST)Sennybridge, United Kingdom (3507): wind direction: 13.08.2018 20:00:00 - 19.08.2018 20:00:00 (BST)Sennybridge, United Kingdom (3507): reduced air pressure: 13.08.2018 20:00:00 - 19.08.2018 20:00:00 (BST)Sennybridge, United Kingdom (3507): visibility: 13.08.2018 20:00:00 - 19.08.2018 20:00:00 (BST)Sennybridge, United Kingdom (3507): precipitation: 13.08.2018 20:00:00 - 19.08.2018 20:00:00 (BST)
Date & Time tt [°C] td [°C] tt -20cm [°C] tt -100cm [°C] ff [km/h] ff [kn] fx [km/h] fx [kn] dd ppp [hPa] vv [km] rr [mm]
19.08.2018 20:00:00 16,8 14,8 - - 2 1 - - NNW 1019,8 40 0,0
19.08.2018 19:00:00 17,4 15,2 - - 2 1 - - WNW 1019,4 45 0,0
19.08.2018 18:00:00 18,4 15,5 - - 2 1 - - NW 1019,1 35 0,0
19.08.2018 17:00:00 18,3 16,2 - - 4 2 - - WNW 1018,9 40 0,0
19.08.2018 16:00:00 17,3 16,3 - - 8 4 - - W 1018,8 23 0,0
19.08.2018 15:00:00 16,4 16,2 - - 11 6 - - WSW 1018,9 10 0,0
19.08.2018 14:00:00 15,9 15,8 - - 15 8 - - WSW 1018,5 8 0,0
19.08.2018 13:00:00 15,5 15,4 - - 16 9 - - WSW 1018,2 2,9 0,0
19.08.2018 12:00:00 15,5 15,4 - - 21 11 - - WSW 1017,7 3,2 0,0
19.08.2018 11:00:00 15,3 15,0 - - 26 14 - - WSW 1017,4 5 0,0
19.08.2018 10:00:00 15,4 15,2 17,2 15,7 28 15 48 26 WSW 1017,0 2,6 0,2
19.08.2018 09:00:00 15,6 15,3 - - 34 18 50 27 WSW 1016,5 11 0,2
19.08.2018 08:00:00 15,8 15,6 - - 29 16 48 26 WSW 1016,1 3,1 0,6
19.08.2018 07:00:00 16,0 15,7 - - 35 19 57 31 WSW 1015,7 26 0,2
19.08.2018 06:00:00 15,9 15,6 - - 35 19 61 33 SW 1015,4 5 0,0
19.08.2018 05:00:00 15,5 15,3 - - 34 18 54 29 SW 1016,0 3,9 0,2
19.08.2018 04:00:00 15,0 14,9 - - 31 17 54 29 SW 1016,6 3,7 0,0
19.08.2018 03:00:00 14,6 14,5 - - 37 20 57 31 SW 1017,7 5 0,2
19.08.2018 02:00:00 14,4 14,3 - - 28 15 50 27 SW 1018,1 10 0,2
19.08.2018 01:00:00 14,9 14,8 - - 31 17 46 25 SW 1018,6 0,6 0,0
19.08.2018 00:00:00 15,5 15,4 - - 29 16 - - SW 1019,2 2,3 0,2
18.08.2018 23:00:00 15,8 15,7 - - 26 14 - - SW 1019,2 3,8 0,0
18.08.2018 22:00:00 15,9 15,9 - - 22 12 - - SW 1019,7 2,2 0,2
18.08.2018 21:00:00 16,0 15,9 - - 21 11 - - SW 1019,8 1,1 0,0
18.08.2018 20:00:00 16,1 15,9 - - 18 10 - - SW 1019,8 3,2 0,2
18.08.2018 19:00:00 16,1 15,9 - - 22 12 - - SW 1019,8 3,2 0,0
18.08.2018 18:00:00 16,2 16,0 - - 22 12 - - SW 1019,8 4,1 0,4
18.08.2018 17:00:00 16,1 15,8 - - 22 12 - - WSW 1020,2 4,7 0,2
18.08.2018 16:00:00 16,2 15,8 - - 22 12 - - WSW 1020,2 4,0 0,0
18.08.2018 15:00:00 16,3 15,9 - - 24 13 - - SW 1020,5 2,8 0,2
18.08.2018 14:00:00 16,6 16,0 - - 24 13 - - WSW 1020,5 5 0,2
18.08.2018 13:00:00 16,2 15,7 - - 22 12 - - WSW 1020,6 2,8 0,0
18.08.2018 12:00:00 16,5 15,3 - - 18 10 - - WSW 1020,5 25 0,0
18.08.2018 11:00:00 15,2 14,3 - - 16 9 - - WSW 1020,7 10 0,0
18.08.2018 10:00:00 14,5 13,5 17,2 15,7 15 8 - - WSW 1020,5 8 0,0
18.08.2018 09:00:00 14,1 13,8 - - 13 7 - - WSW 1020,2 7 0,2
18.08.2018 08:00:00 14,0 13,7 - - 15 8 - - WSW 1020,0 4,7 0,0
18.08.2018 07:00:00 13,9 13,5 - - 15 8 - - WSW 1019,8 8 0,0
18.08.2018 06:00:00 13,9 13,5 - - 16 9 - - WSW 1019,7 6 0,0
18.08.2018 05:00:00 14,0 13,6 - - 15 8 - - SW 1019,5 9 0,0
18.08.2018 04:00:00 14,0 13,7 - - 15 8 - - WSW 1019,6 3,7 0,4
18.08.2018 03:00:00 14,1 13,8 - - 15 8 - - WSW 1019,5 3,7 0,2
18.08.2018 02:00:00 14,0 13,7 - - 16 9 - - WSW 1019,7 7 0,0
18.08.2018 01:00:00 13,9 13,4 - - 21 11 - - WSW 1019,8 8 0,0
18.08.2018 00:00:00 13,9 13,4 - - 21 11 - - WSW 1020,1 7 0,2
17.08.2018 23:00:00 14,0 13,4 - - 21 11 - - WSW 1020,3 6 0,0
17.08.2018 22:00:00 13,9 13,3 - - 22 12 - - SW 1020,0 5 0,0
17.08.2018 21:00:00 13,6 13,1 - - 21 11 - - SW 1020,1 9 0,0
17.08.2018 20:00:00 13,8 12,4 - - 24 13 - - WSW 1020,0 6 0,0
17.08.2018 19:00:00 14,2 12,3 - - 18 10 - - WSW 1019,9 14 0,0
17.08.2018 18:00:00 14,2 11,9 - - 16 9 - - WSW 1019,9 14 0,0
17.08.2018 17:00:00 14,3 11,7 - - 22 12 - - WSW 1019,9 26 0,0
17.08.2018 16:00:00 14,0 10,6 - - 21 11 - - WSW 1020,3 24 0,0
17.08.2018 15:00:00 13,8 10,4 - - 21 11 - - SW 1020,5 30 0,0
17.08.2018 14:00:00 15,2 10,7 - - 21 11 - - WSW 1020,2 27 0,0
17.08.2018 13:00:00 14,9 10,9 - - 21 11 - - WSW 1020,4 30 0,0
17.08.2018 12:00:00 14,4 10,1 - - 18 10 - - WSW 1020,4 30 0,0
17.08.2018 11:00:00 13,7 10,2 - - 16 9 - - WSW 1020,6 35 0,0
17.08.2018 10:00:00 13,7 10,3 17,4 15,7 16 9 - - WSW 1020,3 27 0,0
17.08.2018 09:00:00 12,2 11,0 - - 15 8 - - WSW 1020,1 23 0,0
17.08.2018 08:00:00 10,6 10,2 - - 9 5 - - WSW 1019,8 12 0,0
17.08.2018 07:00:00 10,5 10,2 - - 8 4 - - WSW 1019,7 12 0,0
17.08.2018 06:00:00 10,5 10,2 - - 9 5 - - WSW 1019,0 15 0,0
17.08.2018 05:00:00 10,5 10,3 - - 9 5 - - WSW 1018,6 13 0,0
17.08.2018 04:00:00 10,6 10,5 - - 8 4 - - WSW 1018,5 11 0,0
17.08.2018 03:00:00 9,5 9,3 - - 9 5 - - WSW 1018,6 9 0,0
17.08.2018 02:00:00 9,8 9,6 - - 8 4 - - SW 1018,1 11 0,0
17.08.2018 01:00:00 9,3 9,0 - - 8 4 - - SSW 1018,2 10 0,0
17.08.2018 00:00:00 9,5 9,1 - - 5 3 - - SW 1017,9 17 0,0
16.08.2018 23:00:00 10,4 9,6 - - 8 4 - - SSW 1017,5 20 0,0
16.08.2018 22:00:00 12,7 10,8 - - 11 6 - - WSW 1016,8 27 0,0
16.08.2018 21:00:00 12,2 10,0 - - 8 4 - - WSW 1016,3 30 0,0
16.08.2018 20:00:00 13,7 9,8 - - 2 1 - - W 1015,6 45 0,0
16.08.2018 19:00:00 15,2 9,3 - - 4 2 - - WNW 1014,9 45 0,0
16.08.2018 18:00:00 16,9 9,9 - - 4 2 - - WNW 1014,3 40 0,0
16.08.2018 17:00:00 15,6 8,9 - - 4 2 - - WNW 1014,1 40 0,0
16.08.2018 16:00:00 17,1 10,8 - - 22 12 - - WSW 1013,4 30 0,0
16.08.2018 15:00:00 15,7 9,1 - - 5 3 - - W 1013,1 50 0,0
16.08.2018 14:00:00 15,3 10,4 - - 5 3 - - WNW 1012,8 30 0,0
16.08.2018 13:00:00 13,4 10,6 - - 4 2 - - W 1013,1 16 0,0
16.08.2018 12:00:00 16,4 10,3 - - 13 7 - - W 1012,3 40 0,0
16.08.2018 11:00:00 14,5 10,3 - - 8 4 - - W 1012,8 19 0,0
16.08.2018 10:00:00 12,5 10,2 17,7 15,7 9 5 - - W 1012,7 19 0,0
16.08.2018 09:00:00 12,0 10,9 - - 11 6 - - WSW 1012,4 15 0,0
16.08.2018 08:00:00 11,7 10,8 - - 8 4 - - W 1012,1 14 0,2
16.08.2018 07:00:00 13,1 12,6 - - 16 9 - - WSW 1011,3 14 0,0
16.08.2018 06:00:00 13,5 13,3 - - 21 11 - - WSW 1011,0 12 3,2
16.08.2018 05:00:00 13,4 13,0 - - 18 10 - - SW 1011,2 5 4,2
16.08.2018 04:00:00 14,6 14,3 - - 18 10 - - WSW 1011,0 7 1,2
16.08.2018 03:00:00 15,3 15,1 - - 18 10 - - WSW 1011,3 14 2,2
16.08.2018 02:00:00 15,9 15,7 - - 13 7 - - W 1011,3 3,7 3,8
16.08.2018 01:00:00 15,9 15,8 - - 29 16 46 25 SW 1011,6 4,1 3,0
16.08.2018 00:00:00 15,9 15,8 - - 22 12 - - SW 1012,3 4,1 1,2
15.08.2018 23:00:00 15,8 15,7 - - 24 13 - - SSW 1012,6 2,9 1,6
15.08.2018 22:00:00 15,7 15,6 - - 28 15 - - SW 1013,4 2,9 1,0
15.08.2018 21:00:00 15,7 15,5 - - 26 14 52 28 SW 1013,7 2,7 1,4
15.08.2018 20:00:00 15,7 15,4 - - 34 18 54 29 SW 1013,9 3,0 1,6
15.08.2018 19:00:00 15,9 15,6 - - 26 14 46 25 SW 1014,2 6 2,4
15.08.2018 18:00:00 16,1 15,7 - - 26 14 - - SW 1014,7 4,5 0,2
15.08.2018 17:00:00 16,4 16,0 - - 31 17 48 26 SW 1015,2 3,5 0,2
15.08.2018 16:00:00 16,2 15,5 - - 28 15 46 25 SW 1015,8 3,3 0,2
15.08.2018 15:00:00 17,7 15,8 - - 28 15 - - SW 1016,0 21 0,0
15.08.2018 14:00:00 16,5 15,5 - - 29 16 48 26 SW 1016,6 8 0,0
15.08.2018 13:00:00 16,3 15,6 - - 29 16 - - SW 1016,8 6 0,0
15.08.2018 12:00:00 16,4 15,7 - - 28 15 - - SW 1017,0 18 0,0
15.08.2018 11:00:00 16,2 15,9 - - 26 14 46 25 WSW 1017,1 5 0,8
15.08.2018 10:00:00 16,2 16,0 17,7 15,7 24 13 46 25 WSW 1017,0 2,3 0,6
15.08.2018 09:00:00 15,8 15,6 - - 18 10 - - WSW 1016,9 4,9 0,0
15.08.2018 08:00:00 15,5 15,4 - - 16 9 - - WSW 1016,8 40 0,2
15.08.2018 07:00:00 15,4 15,3 - - 21 11 - - WSW 1016,8 0,4 0,0
15.08.2018 06:00:00 15,2 15,1 - - 18 10 - - W 1016,8 2,9 0,2
15.08.2018 05:00:00 14,9 14,8 - - 24 13 - - WSW 1016,9 2,4 0,2
15.08.2018 04:00:00 14,5 14,3 - - 15 8 - - WSW 1017,2 5 0,0
15.08.2018 03:00:00 14,1 14,0 - - 15 8 - - WSW 1017,6 4,0 0,0
15.08.2018 02:00:00 13,9 13,7 - - 13 7 - - WSW 1018,1 3,2 0,0
15.08.2018 01:00:00 13,9 13,6 - - 13 7 - - SW 1018,3 4,5 0,0
15.08.2018 00:00:00 14,1 13,3 - - 15 8 - - WSW 1018,6 5 0,0
14.08.2018 23:00:00 14,3 13,2 - - 11 6 - - WSW 1018,7 7 0,0
14.08.2018 22:00:00 14,6 13,2 - - 15 8 - - SW 1018,6 8 0,0
14.08.2018 21:00:00 14,9 13,2 - - 15 8 - - WSW 1018,6 14 0,0
14.08.2018 20:00:00 15,2 13,5 - - 15 8 - - WSW 1018,1 15 0,0
14.08.2018 19:00:00 16,1 14,1 - - 16 9 - - SW 1017,6 14 0,0
14.08.2018 18:00:00 16,3 14,1 - - 18 10 - - WSW 1017,5 17 0,0
14.08.2018 17:00:00 17,5 15,3 - - 21 11 - - WSW 1017,2 26 0,0
14.08.2018 16:00:00 18,1 15,7 - - 22 12 - - WSW 1017,1 17 0,0
14.08.2018 15:00:00 17,5 16,8 - - 18 10 - - WSW 1017,1 20 0,2
14.08.2018 14:00:00 17,1 16,6 - - 9 5 - - W 1017,0 24 1,0
14.08.2018 13:00:00 16,7 15,6 - - 13 7 - - WSW 1017,1 2,6 0,0
14.08.2018 12:00:00 16,3 14,5 - - 13 7 - - W 1017,2 40 0,0
14.08.2018 11:00:00 16,5 14,1 - - 11 6 - - W 1016,8 30 0,0
14.08.2018 10:00:00 17,0 14,5 17,5 15,7 13 7 - - W 1016,4 40 0,0
14.08.2018 09:00:00 15,3 14,2 - - 8 4 - - WSW 1016,3 35 0,0
14.08.2018 08:00:00 14,4 13,5 - - 5 3 - - SSW 1015,9 22 0,0
14.08.2018 07:00:00 13,7 13,1 - - 9 5 - - SW 1015,9 30 0,0
14.08.2018 06:00:00 13,2 12,8 - - 5 3 - - SW 1015,5 11 0,0
14.08.2018 05:00:00 13,0 12,7 - - 5 3 - - SSW 1015,4 9 0,0
14.08.2018 04:00:00 13,0 12,6 - - 5 3 - - SW 1015,4 8 0,0
14.08.2018 03:00:00 12,7 12,1 - - 8 4 - - SW 1015,1 8 0,0
14.08.2018 02:00:00 13,5 12,5 - - 8 4 - - SW 1014,6 17 0,0
14.08.2018 01:00:00 13,5 12,3 - - 4 2 - - SSW 1014,8 21 0,0
14.08.2018 00:00:00 13,6 12,2 - - 4 2 - - SW 1014,3 14 0,0
13.08.2018 23:00:00 13,9 12,1 - - 2 1 - - WNW 1014,0 26 0,0
13.08.2018 22:00:00 14,1 12,3 - - 0 0 - - N 1013,7 28 0,0
13.08.2018 21:00:00 14,5 12,2 - - 0 0 - - N 1013,1 50 0,0
13.08.2018 20:00:00 15,4 12,1 - - 4 2 - - NNW 1012,3 40 0,0

tt = temperature
td = dewpoint
tt -20cm = temperature -20cm
tt -100cm = temperature -100cm
ff = wind speed
fx = gusts
dd = wind direction
ppp = reduced air pressure
vv = visibility
rr = precipitation

Next stations